Lid_Strength_Index
-0 -0 0 0 1 1 1 1 2 2 2 2 2 2 2 2 3 3 7 5 4 0 2 4 5 5 6 8 7 8 12 14 13 12 10 8 7 7 5 6 5 5 5 4 2
-1 -1 -0 0 1 1 1 1 2 2 2 2 2 2 2 2 4 5 2 0 -0 -0 5 6 6 6 8 8 8 10 13 12 10 10 9 8 9 9 9 7 7 6 4 3 3
-1 -1 -0 -0 0 1 1 2 2 2 2 2 2 2 2 3 5 4 -0 -0 -1 0 5 5 5 5 8 9 9 11 11 10 9 8 9 10 9 8 9 10 6 7 6 4 4
-0 -0 -0 -0 0 1 1 2 2 2 2 2 2 2 2 3 10 4 -1 -1 -1 3 4 5 6 7 9 9 9 10 8 9 9 8 9 9 9 9 10 8 6 4 4 4 5
0 0 0 -0 0 1 1 2 2 2 2 2 1 1 3 7 7 2 -1 -1 3 4 5 6 6 7 9 9 8 9 9 8 7 8 8 8 9 9 8 7 4 4 4 5 4
1 1 1 0 1 1 1 2 2 2 2 2 1 1 5 10 5 1 2 3 4 4 4 4 5 6 7 9 9 8 8 8 8 8 8 9 9 9 7 7 5 5 5 5 4
1 1 1 1 1 1 1 2 2 2 2 2 1 2 4 8 5 3 3 4 4 4 5 4 5 6 7 8 7 7 9 9 9 8 9 8 10 10 7 8 8 6 5 5 4
2 1 1 1 1 2 2 2 2 2 2 1 2 4 8 4 3 4 4 3 2 3 3 4 5 6 7 7 8 10 10 12 10 8 8 10 12 8 7 8 7 6 6 5 5
2 2 1 2 2 2 2 2 2 2 2 2 4 5 8 2 4 2 3 4 3 3 4 3 5 7 7 10 11 12 14 13 11 9 9 11 11 8 8 9 9 8 7 5 5
4 2 2 2 2 2 2 3 2 2 2 2 3 8 6 7 5 3 3 3 4 4 5 6 7 9 10 11 15 13 13 13 13 10 10 11 11 10 9 9 9 9 9 9 8
4 4 3 2 2 2 2 4 7 7 5 8 7 8 7 4 4 4 4 4 5 6 9 7 10 11 10 9 9 10 11 12 10 9 10 10 11 10 9 10 10 10 9 9 8
3 4 4 3 3 3 3 5 5 5 8 4 5 5 4 4 6 6 4 6 7 9 9 10 11 8 8 9 9 10 12 12 10 9 9 10 10 9 10 9 9 9 9 8 8
2 3 4 4 4 4 4 4 2 3 9 7 5 5 4 4 6 6 5 6 7 9 9 11 9 7 8 9 10 11 12 12 11 10 11 11 12 11 9 9 8 8 8 8 8
2 3 4 5 5 4 5 1 1 3 11 10 7 6 5 4 7 4 4 6 8 9 9 10 7 8 9 10 9 12 10 9 10 12 15 11 16 11 11 10 9 9 9 9 8
2 2 3 5 6 5 5 2 2 4 19 9 8 5 6 7 7 7 5 6 8 9 8 10 9 9 10 9 9 10 8 9 11 13 14 13 15 13 12 11 10 9 8 8 9
2 2 2 5 5 3 3 4 4 13 19 11 8 9 9 9 9 8 7 6 6 8 9 9 8 8 9 8 9 8 9 11 12 13 16 13 14 14 13 11 10 9 8 8 8
2 2 3 2 7 3 3 6 13 17 10 12 10 9 10 11 9 8 10 10 11 13 12 9 9 8 8 10 9 9 12 17 17 18 18 12 14 12 11 9 9 9 8 8 8
2 3 3 3 3 4 4 10 17 13 12 10 9 9 11 10 10 9 11 12 10 11 13 14 15 10 9 9 11 11 11 16 19 20 17 12 15 12 9 8 8 8 7 7 8
3 6 6 5 2 5 9 15 15 12 11 12 10 11 11 10 10 10 11 11 10 9 12 13 13 8 9 8 8 10 13 10 14 14 17 14 12 10 10 9 8 7 8 8 8
7 8 8 5 2 6 12 13 13 9 10 10 14 11 12 11 11 10 11 9 9 8 8 10 13 9 8 8 9 9 8 14 14 19 20 16 15 14 11 9 9 9 8 8 8
6 10 8 5 2 10 15 12 10 9 8 11 12 12 11 11 10 11 11 9 8 9 7 9 11 11 9 10 11 11 12 12 12 14 18 19 16 11 9 9 9 8 8 8 7
5 13 7 3 10 10 14 10 8 9 8 9 10 11 12 11 11 11 11 9 7 7 10 9 11 14 12 10 9 10 11 12 15 16 15 16 16 9 9 9 8 8 8 7 7
7 9 6 4 13 13 12 10 8 9 9 10 11 10 10 12 13 10 10 8 7 8 9 8 12 16 14 11 11 11 11 11 12 14 15 17 15 9 8 9 8 8 7 7 7
6 13 8 7 9 10 12 14 11 8 9 9 10 9 11 12 11 13 11 8 7 7 7 7 11 13 15 13 10 13 12 12 12 16 16 15 14 11 10 10 9 8 8 7 6
5 9 8 11 11 12 10 11 12 11 8 8 9 10 11 13 12 13 10 10 8 8 8 8 13 12 11 10 10 11 12 13 14 14 16 13 13 11 10 9 9 8 7 7 7
7 8 6 9 9 10 10 11 12 10 9 10 10 10 10 12 12 13 10 10 10 9 9 9 13 12 13 11 11 12 11 12 12 12 12 12 12 9 8 9 9 8 7 7 7
3 4 6 8 9 10 11 11 10 9 9 8 9 9 11 10 9 8 7 7 8 10 11 11 12 14 16 12 12 15 13 12 12 11 11 13 10 10 10 9 8 8 7 7 7